Date String (YYYY-MM-DD hh:mm:ss) UTC,Instrument flags,absolute air pressure of the measurement (hPa),sample flow rate (lpm),inlet stack bypass flow (lpm),air temperature of the measurement (°C),ambient temperature measured by the external sensor (°C),aerosol sample conditioner tube jacket temperature (°C),OPC LED temperature (°C),internal box temperature (°C),relative humidity of the measurement (%),span deviation,mass concentration of particles derived from Lorenz-Mie calculation of OPC scattering (μg/m³),mass concentration of particles derived from Lorenz-Mie calculation of OPC scattering (μg/m³),mass concentration of particles derived from Lorenz-Mie calculation of OPC scattering (μg/m³)
DateTimeUTC,F1_M11,P_M11,Q1_M11,Q2_M11,T1_M11,T2_M11,T3_M11,T4_M11,T5_M11,U1_M11,ZSPAN_M11,X0_M11,X2_M11,X1_M11
2023-06-24 21:00:00,SystemResetWarning,0830.2,5.01,000.00,029.2,027.8,000.0,037.6,030.8,12.5,0003.4,0014.07,0006.40,0005.50
2023-06-24 21:01:00,SystemResetWarning,0830.1,4.98,000.00,029.2,026.4,000.0,037.6,030.8,11.7,0003.2,0013.62,0006.44,0005.56
2023-06-24 21:02:00,SystemResetWarning,0830.1,5.01,000.00,029.2,024.4,000.0,037.5,030.7,11.4,0003.1,0012.08,0006.50,0005.60
2023-06-24 21:03:00,SystemResetWarning,0830.1,5.02,000.00,029.2,024.3,000.0,037.5,030.7,12.1,0003.4,0012.38,0006.52,0005.62
2023-06-24 21:04:00,SystemResetWarning,0830.0,4.99,000.00,029.1,024.8,000.0,037.5,030.4,13.3,0003.5,0012.43,0006.51,0005.61
2023-06-24 21:05:00,SystemResetWarning,0830.1,5.00,000.00,029.0,025.3,000.0,037.5,030.3,12.8,0003.5,0012.63,0006.52,0005.59
2023-06-24 21:06:00,SystemResetWarning,0830.0,5.01,000.00,029.0,025.8,000.0,037.5,030.4,11.3,0003.7,0012.55,0006.46,0005.54
2023-06-24 21:07:00,SystemResetWarning,0830.1,5.00,000.00,029.0,026.2,000.0,037.5,030.4,11.9,0003.7,0012.32,0006.42,0005.51
2023-06-24 21:08:00,SystemResetWarning,0830.1,5.00,000.00,029.0,026.6,000.0,037.5,030.5,11.4,0003.7,0011.51,0006.38,0005.50
2023-06-24 21:09:00,SystemResetWarning,0830.2,4.99,000.00,029.0,026.9,000.0,037.5,030.6,11.5,0003.9,0011.36,0006.35,0005.49
2023-06-24 21:10:00,SystemResetWarning,0830.3,5.00,000.00,029.0,027.2,000.0,037.5,030.6,11.5,0004.1,0011.17,0006.31,0005.50
2023-06-24 21:11:00,SystemResetWarning,0830.2,5.00,000.00,029.1,027.4,000.0,037.6,030.7,12.6,0004.2,0011.13,0006.30,0005.51
2023-06-24 21:12:00,SystemResetWarning,0830.2,5.00,000.00,029.1,027.6,000.0,037.6,030.8,12.0,0004.4,0010.98,0006.31,0005.47
2023-06-24 21:13:00,SystemResetWarning,0830.2,5.00,000.00,029.2,027.8,000.0,037.6,030.8,13.3,0004.3,0010.94,0006.26,0005.43
2023-06-24 21:14:00,SystemResetWarning,0830.1,4.99,000.00,029.2,027.2,000.0,037.6,030.8,12.7,0004.4,0010.75,0006.18,0005.38
2023-06-24 21:15:00,SystemResetWarning,0830.2,5.00,000.00,029.2,025.4,000.0,037.5,030.7,13.0,0004.5,0010.78,0006.19,0005.36
2023-06-24 21:16:00,SystemResetWarning,0830.1,5.01,000.00,029.2,025.4,000.0,037.5,030.8,13.0,0004.6,0010.60,0006.14,0005.35
2023-06-24 21:17:00,SystemResetWarning,0830.1,5.00,000.00,029.1,025.7,000.0,037.5,030.5,12.1,0004.4,0010.70,0006.14,0005.37
2023-06-24 21:18:00,SystemResetWarning,0830.1,5.00,000.00,029.1,026.1,000.0,037.5,030.5,12.1,0004.3,0011.59,0006.19,0005.39
2023-06-24 21:19:00,SystemResetWarning,0830.1,4.99,000.00,029.1,026.5,000.0,037.6,030.6,12.1,0004.2,0012.81,0006.24,0005.42
2023-06-24 21:20:00,SystemResetWarning,0830.2,4.99,000.00,029.1,026.8,000.0,037.6,030.6,12.0,0004.0,0013.07,0006.28,0005.42
2023-06-24 21:21:00,SystemResetWarning,0830.1,5.00,000.00,029.1,027.1,000.0,037.6,030.7,12.6,0004.0,0013.69,0006.29,0005.40
2023-06-24 21:22:00,SystemResetWarning,0830.1,5.00,000.00,029.2,027.4,000.0,037.6,030.8,13.3,0004.0,0013.78,0006.28,0005.39
2023-06-24 21:23:00,SystemResetWarning,0830.1,5.00,000.00,029.2,027.6,000.0,037.6,030.8,12.4,0004.1,0014.04,0006.20,0005.38
2023-06-24 21:24:00,SystemResetWarning,0830.1,4.99,000.00,029.3,027.3,000.0,037.6,030.9,12.4,0004.3,0014.85,0006.19,0005.35
2023-06-24 21:25:00,SystemResetWarning,0830.2,4.99,000.00,029.2,025.2,000.0,037.6,030.6,11.7,0004.3,0014.42,0006.20,0005.35
2023-06-24 21:26:00,SystemResetWarning,0830.2,5.00,000.00,029.1,024.2,000.0,037.5,030.5,11.0,0004.2,0014.38,0006.17,0005.36
2023-06-24 21:27:00,SystemResetWarning,0830.2,5.02,000.00,029.1,024.6,000.0,037.5,030.5,12.0,0004.1,0015.23,0006.18,0005.35
2023-06-24 21:28:00,SystemResetWarning,0830.2,4.99,000.00,029.0,025.1,000.0,037.5,030.3,12.5,0004.4,0015.05,0006.13,0005.34
2023-06-24 21:29:00,SystemResetWarning,0830.2,4.99,000.00,029.0,025.6,000.0,037.5,030.4,12.4,0004.6,0014.14,0006.07,0005.33
2023-06-24 21:30:00,SystemResetWarning,0830.2,5.00,000.00,029.0,026.1,000.0,037.5,030.5,11.7,0004.4,0012.96,0006.01,0005.30
2023-06-24 21:31:00,SystemResetWarning,0830.2,5.01,000.00,029.0,026.5,000.0,037.5,030.5,11.6,0004.4,0012.57,0005.93,0005.27
2023-06-24 21:32:00,SystemResetWarning,0830.1,4.99,000.00,029.0,026.8,000.0,037.5,030.6,11.6,0004.2,0011.96,0005.89,0005.24
2023-06-24 21:33:00,SystemResetWarning,0830.0,5.00,000.00,029.1,027.1,000.0,037.5,030.7,11.4,0004.0,0011.99,0005.86,0005.22
2023-06-24 21:34:00,SystemResetWarning,0830.0,4.99,000.00,029.1,027.4,000.0,037.6,030.7,11.7,0003.6,0011.49,0005.87,0005.21
2023-06-24 21:35:00,SystemResetWarning,0830.0,5.00,000.00,029.1,027.6,000.0,037.6,030.8,12.1,0003.0,0010.57,0005.87,0005.22
2023-06-24 21:36:00,SystemResetWarning,0830.0,5.00,000.00,029.2,027.8,000.0,037.6,030.9,11.7,0002.5,0010.65,0005.91,0005.24
2023-06-24 21:37:00,SystemResetWarning,0830.1,5.01,000.00,029.2,028.0,000.0,037.6,030.9,11.6,0002.7,0010.86,0005.96,0005.24
2023-06-24 21:38:00,SystemResetWarning,0830.1,4.99,000.00,029.3,027.3,000.0,037.6,031.0,12.7,0003.0,0010.08,0005.96,0005.25
2023-06-24 21:39:00,SystemResetWarning,0830.1,5.00,000.00,029.3,025.5,000.0,037.6,030.9,12.1,0002.5,0010.85,0005.98,0005.26
2023-06-24 21:40:00,SystemResetWarning,0830.1,5.01,000.00,029.3,025.5,000.0,037.5,030.9,11.9,0002.6,0011.02,0005.95,0005.22
2023-06-24 21:41:00,SystemResetWarning,0830.0,4.99,000.00,029.2,025.8,000.0,037.6,030.7,12.8,0003.0,0011.07,0005.88,0005.17
2023-06-24 21:42:00,SystemResetWarning,0830.0,4.99,000.00,029.2,026.2,000.0,037.6,030.7,12.7,0003.0,0011.33,0005.88,0005.13
2023-06-24 21:43:00,SystemResetWarning,0830.1,5.00,000.00,029.2,026.6,000.0,037.6,030.7,12.5,0003.0,0011.87,0005.89,0005.08
2023-06-24 21:44:00,SystemResetWarning,0830.1,5.01,000.00,029.2,026.9,000.0,037.6,030.8,12.0,0003.5,0012.78,0005.86,0005.02
2023-06-24 21:45:00,SystemResetWarning,0830.1,5.00,000.00,029.2,027.2,000.0,037.6,030.8,12.4,0003.4,0012.96,0005.80,0004.96
2023-06-24 21:46:00,SystemResetWarning,0830.1,4.99,000.00,029.3,027.5,000.0,037.7,030.8,12.8,0003.8,0013.39,0005.74,0004.89
2023-06-24 21:47:00,SystemResetWarning,0830.1,5.00,000.00,029.3,027.7,000.0,037.7,030.9,12.1,0004.0,0013.85,0005.66,0004.81
2023-06-24 21:48:00,SystemResetWarning,0830.1,4.99,000.00,029.3,027.4,000.0,037.7,031.0,12.4,0003.9,0013.65,0005.57,0004.73
2023-06-24 21:49:00,SystemResetWarning,0830.1,5.00,000.00,029.3,025.6,000.0,037.6,030.9,12.8,0003.5,0013.56,0005.50,0004.67
2023-06-24 21:50:00,SystemResetWarning,0830.1,5.02,000.00,029.3,025.5,000.0,037.6,031.0,12.9,0003.3,0012.93,0005.42,0004.61
2023-06-24 21:51:00,SystemResetWarning,0830.1,4.99,000.00,029.3,025.8,000.0,037.6,030.7,13.0,0003.2,0013.89,0005.35,0004.57
2023-06-24 21:52:00,SystemResetWarning,0830.1,4.99,000.00,029.2,026.2,000.0,037.6,030.7,13.4,0003.3,0014.13,0005.39,0004.56
2023-06-24 21:53:00,SystemResetWarning,0830.1,5.01,000.00,029.2,026.6,000.0,037.7,030.7,12.2,0003.0,0014.00,0005.39,0004.55
2023-06-24 21:54:00,SystemResetWarning,0830.1,4.99,000.00,029.2,026.9,000.0,037.7,030.8,11.6,0003.2,0014.24,0005.30,0004.52
2023-06-24 21:55:00,SystemResetWarning,0830.1,4.99,000.00,029.3,027.3,000.0,037.7,030.8,11.7,0003.1,0013.58,0005.25,0004.51
2023-06-24 21:56:00,SystemResetWarning,0830.1,5.00,000.00,029.3,027.5,000.0,037.7,030.9,12.4,0003.5,0013.17,0005.26,0004.50
2023-06-24 21:57:00,SystemResetWarning,0830.1,5.00,000.00,029.3,027.7,000.0,037.7,031.0,12.1,0003.7,0012.88,0005.25,0004.49
2023-06-24 21:58:00,SystemResetWarning,0830.1,4.99,000.00,029.4,026.6,000.0,037.7,031.0,11.5,0003.9,0012.27,0005.23,0004.49
2023-06-24 21:59:00,SystemResetWarning,0830.0,5.00,000.00,029.3,024.5,000.0,037.6,030.7,12.5,0004.2,0012.07,0005.17,0004.47
